FW4445 Weather Reports


time (UTC)temp
C
wind
direction
speed
KPH
gust
KPH
rain 1hr
cm
rain 24hr
cm
rain mn
cm
humidity
%
barometer
mb
20260502232021 12 0 0.0 0.0 0.00 0.00 0.00 73 1021.7
20260502231520 12 0 0.0 0.0 0.00 0.00 0.00 75 1021.7
20260502230519 12 0 0.0 0.0 0.00 0.00 0.00 74 1021.5
20260502230021 12 0 0.0 0.0 0.00 0.00 0.00 74 1021.7
20260502225520 12 0 0.0 0.0 0.00 0.00 0.00 74 1021.7
20260502225022 12 0 0.0 0.0 0.00 0.00 0.00 74 1021.7
20260502224021 13 0 0.0 0.0 0.00 0.00 0.00 74 1021.6
20260502223520 13 0 0.0 0.0 0.00 0.00 0.00 74 1021.5
20260502223021 13 0 0.0 0.0 0.00 0.00 0.00 73 1021.6
20260502222520 13 0 0.0 0.0 0.00 0.00 0.00 72 1021.7
20260502222020 13 0 0.0 0.0 0.00 0.00 0.00 72 1021.7
20260502221521 13 0 0.0 0.0 0.00 0.00 0.00 71 1021.8
20260502220521 13 0 0.0 0.0 0.00 0.00 0.00 70 1021.8
20260502220032 13 0 0.0 0.0 0.00 0.00 0.00 70 1021.6
20260502215521 13 0 0.0 0.0 0.00 0.00 0.00 69 1021.8
20260502215020 13 0 0.0 0.0 0.00 0.00 0.00 69 1021.7
20260502214520 14 0 0.0 0.0 0.00 0.00 0.00 69 1021.8
20260502213521 14 0 0.0 0.0 0.00 0.00 0.00 68 1021.9
20260502213021 14 86 0.0 4.8 0.00 0.00 0.00 68 1021.9
20260502212520 14 85 1.6 8.0 0.00 0.00 0.00 68 1021.8
20260502212022 14 83 3.2 8.0 0.00 0.00 0.00 67 1021.9
20260502211021 15 87 1.6 8.0 0.00 0.00 0.00 67 1021.9
20260502210022 15 71 3.2 8.0 0.00 0.00 0.00 64 1022.0
20260502205522 15 75 3.2 8.0 0.00 0.00 0.00 64 1021.8
20260502205021 15 76 3.2 8.0 0.00 0.00 0.00 63 1022.0
20260502204520 15 79 3.2 8.0 0.00 0.00 0.00 63 1022.0
20260502204021 15 80 1.6 8.0 0.00 0.00 0.00 63 1022.0
20260502203521 15 75 3.2 12.9 0.00 0.00 0.00 63 1022.1
20260502200522 15 66 1.6 8.0 0.00 0.00 0.00 63 1022.0
20260502200021 15 0 0.0 0.0 0.00 0.00 0.00 64 1021.8
20260502195521 15 0 0.0 0.0 0.00 0.00 0.00 64 1021.9
20260502195021 15 0 0.0 0.0 0.00 0.00 0.00 63 1021.8
20260502194520 15 0 0.0 0.0 0.00 0.00 0.00 63 1021.9
20260502194021 15 0 0.0 0.0 0.00 0.00 0.00 63 1021.6
20260502193520 15 0 0.0 0.0 0.00 0.00 0.00 62 1021.6
20260502193020 15 0 0.0 0.0 0.00 0.00 0.00 62 1021.6
20260502192521 15 0 0.0 0.0 0.00 0.00 0.00 62 1021.7
20260502192021 16 0 0.0 0.0 0.00 0.00 0.00 62 1021.7
20260502191520 16 0 0.0 0.0 0.00 0.00 0.00 62 1021.5
20260502191020 16 0 0.0 0.0 0.00 0.00 0.00 60 1021.6
20260502190520 16 0 0.0 0.0 0.00 0.00 0.00 60 1021.6
20260502190021 16 0 0.0 0.0 0.00 0.00 0.00 58 1021.5
20260502185520 17 0 0.0 0.0 0.00 0.00 0.00 58 1021.4
20260502185020 17 0 0.0 0.0 0.00 0.00 0.00 56 1021.4
20260502184520 17 0 0.0 0.0 0.00 0.00 0.00 56 1021.3
20260502184021 17 208 0.0 4.8 0.00 0.00 0.00 56 1021.4
20260502183022 18 240 1.6 4.8 0.00 0.00 0.00 54 1021.2
20260502182520 18 244 1.6 4.8 0.00 0.00 0.00 53 1021.1
20260502182021 18 220 0.0 4.8 0.00 0.00 0.00 52 1021.2
20260502181521 18 229 0.0 4.8 0.00 0.00 0.00 50 1021.1
20260502181021 19 240 0.0 4.8 0.00 0.00 0.00 48 1021.1
20260502180521 19 248 1.6 4.8 0.00 0.00 0.00 47 1021.1
20260502164021 23 250 4.8 12.9 0.00 0.00 0.00 38 1021.1
20260502163521 23 254 4.8 12.9 0.00 0.00 0.00 37 1021.1
20260502163021 23 251 4.8 16.1 0.00 0.00 0.00 37 1021.1
20260502162021 23 248 4.8 14.5 0.00 0.00 0.00 37 1021.1
20260502161521 24 250 4.8 14.5 0.00 0.00 0.00 36 1021.4
20260502161021 24 253 4.8 9.7 0.00 0.00 0.00 36 1021.3
20260502160521 24 244 4.8 12.9 0.00 0.00 0.00 36 1021.3
20260502151520 24 245 8.0 20.9 0.00 0.00 0.00 35 1022.0
20260502151021 25 237 6.4 16.1 0.00 0.00 0.00 36 1021.8
20260502150521 25 226 6.4 16.1 0.00 0.00 0.00 35 1022.0
20260502130519 25 234 4.8 14.5 0.00 0.00 0.00 33 1023.2
20260502123520 24 249 6.4 17.7 0.00 0.00 0.00 33 1023.8
20260502123020 24 251 8.0 17.7 0.00 0.00 0.00 33 1023.9
20260502122519 24 245 8.0 17.7 0.00 0.00 0.00 34 1023.8
20260502122021 24 237 6.4 14.5 0.00 0.00 0.00 34 1023.8
20260502121519 24 242 6.4 14.5 0.00 0.00 0.00 33 1023.8
20260502121020 24 254 6.4 14.5 0.00 0.00 0.00 34 1024.0
20260502120520 24 253 6.4 17.7 0.00 0.00 0.00 33 1024.0
20260502115523 24 241 4.8 14.5 0.00 0.00 0.00 34 1024.1
20260502115023 24 232 4.8 16.1 0.00 0.00 0.00 35 1024.2
20260502114520 23 232 6.4 20.9 0.00 0.00 0.00 35 1024.3
20260502114022 23 240 8.0 20.9 0.00 0.00 0.00 35 1024.4
20260502113520 23 257 8.0 16.1 0.00 0.00 0.00 35 1024.5
20260502112520 23 239 6.4 16.1 0.00 0.00 0.00 35 1024.5
20260502112022 23 241 8.0 17.7 0.00 0.00 0.00 34 1024.8
20260502111521 23 241 6.4 17.7 0.00 0.00 0.00 35 1024.6
20260502111020 23 236 6.4 17.7 0.00 0.00 0.00 36 1024.7
20260502110021 23 260 4.8 14.5 0.00 0.00 0.00 35 1024.9
20260502105520 23 259 6.4 17.7 0.00 0.00 0.00 35 1025.0
20260502105021 22 251 8.0 17.7 0.00 0.00 0.00 36 1025.1
20260502104521 23 239 4.8 17.7 0.00 0.00 0.00 36 1025.0
20260502104020 22 213 4.8 14.5 0.00 0.00 0.00 35 1025.1
20260502103020 22 260 4.8 14.5 0.00 0.00 0.00 36 1025.4
20260502102520 22 269 4.8 16.1 0.00 0.00 0.00 37 1025.1
20260502102020 22 256 4.8 16.1 0.00 0.00 0.00 37 1025.4
20260502101520 22 233 4.8 14.5 0.00 0.00 0.00 36 1025.5
20260502100521 22 263 4.8 14.5 0.00 0.00 0.00 37 1025.7
20260502091519 21 240 3.2 9.7 0.00 0.00 0.00 39 1026.2
20260502091020 22 235 1.6 9.7 0.00 0.00 0.00 38 1026.1
20260502090520 22 195 1.6 8.0 0.00 0.00 0.00 40 1026.1
20260502071020 18 76 1.6 8.0 0.00 0.00 0.00 49 1027.0
20260502070020 17 86 1.6 4.8 0.00 0.00 0.00 50 1026.8
20260502065022 17 88 1.6 8.0 0.00 0.00 0.00 49 1027.1
20260502064520 17 79 1.6 4.8 0.00 0.00 0.00 51 1027.1
20260502064022 16 79 1.6 8.0 0.00 0.00 0.00 51 1027.2
20260502063520 16 79 1.6 8.0 0.00 0.00 0.00 52 1026.9
20260502063020 16 81 1.6 4.8 0.00 0.00 0.00 53 1027.1
20260502062520 15 80 1.6 4.8 0.00 0.00 0.00 54 1027.1
20260502062020 15 77 1.6 8.0 0.00 0.00 0.00 54 1027.3
20260502061522 15 73 3.2 8.0 0.00 0.00 0.00 56 1027.2
20260502061020 15 77 1.6 8.0 0.00 0.00 0.00 54 1027.4
20260502060519 15 86 0.0 4.8 0.00 0.00 0.00 53 1027.5
20260502060020 15 74 0.0 4.8 0.00 0.00 0.00 52 1027.3
20260502055520 15 48 0.0 4.8 0.00 0.00 0.00 52 1027.4
20260502055028 15 327 0.0 3.2 0.00 0.00 0.00 53 1027.2
20260502054520 16 0 0.0 0.0 0.00 0.00 0.00 52 1027.3
20260502054021 15 0 0.0 0.0 0.00 0.00 0.00 53 1027.4
20260502053520 14 0 0.0 0.0 0.00 0.00 0.00 54 1027.4
20260502053021 13 0 0.0 0.0 0.00 0.00 0.00 57 1027.4
20260502052519 13 0 0.0 0.0 0.00 0.00 0.00 58 1027.3
20260502052021 12 0 0.0 0.0 0.00 0.00 0.00 60 1027.3
20260502051520 12 0 0.0 0.0 0.00 0.00 0.00 60 1027.4
20260502051020 12 0 0.0 0.0 0.00 0.00 0.00 61 1027.5
20260502050521 11 0 0.0 0.0 0.00 0.00 0.00 62 1027.3
20260502050020 11 90 0.0 3.2 0.00 0.00 0.00 64 1027.2
20260502045519 11 90 0.0 3.2 0.00 0.00 0.00 65 1027.1
20260502045020 10 81 0.0 4.8 0.00 0.00 0.00 66 1027.4
20260502044519 10 81 0.0 4.8 0.00 0.00 0.00 66 1027.0
20260502044020 10 0 0.0 0.0 0.00 0.00 0.00 67 1027.2
20260502043519 10 0 0.0 0.0 0.00 0.00 0.00 68 1027.3
20260502043020 9 0 0.0 0.0 0.00 0.00 0.00 69 1027.1
20260502042522 9 0 0.0 0.0 0.00 0.00 0.00 69 1027.2
20260502042021 9 0 0.0 0.0 0.00 0.00 0.00 69 1027.1
20260502041520 9 0 0.0 0.0 0.00 0.00 0.00 69 1027.1
20260502041020 9 2 0.0 4.8 0.00 0.00 0.00 68 1027.3
20260502040520 9 345 1.6 8.0 0.00 0.00 0.00 68 1027.0
20260502040020 9 345 1.6 8.0 0.00 0.00 0.00 68 1027.1
20260502035519 9 349 1.6 4.8 0.00 0.00 0.00 68 1027.2
20260502035020 9 344 1.6 8.0 0.00 0.00 0.00 68 1027.0
20260502034520 9 347 1.6 8.0 0.00 0.00 0.00 68 1027.1
20260502034020 9 349 1.6 4.8 0.00 0.00 0.00 68 1027.1
20260502033519 9 334 0.0 4.8 0.00 0.00 0.00 68 1027.4
20260502033019 9 314 0.0 3.2 0.00 0.00 0.00 68 1027.2
20260502032519 9 0 0.0 0.0 0.00 0.00 0.00 68 1026.9
20260502032020 10 0 0.0 0.0 0.00 0.00 0.00 68 1027.0
20260502031021 10 343 0.0 8.0 0.00 0.00 0.00 67 1027.0
20260502030520 10 342 1.6 8.0 0.00 0.00 0.00 67 1027.1
20260502030020 10 337 0.0 8.0 0.00 0.00 0.00 67 1027.0
20260502025519 10 337 0.0 3.2 0.00 0.00 0.00 66 1027.1
20260502024520 10 0 0.0 0.0 0.00 0.00 0.00 66 1027.2
20260502024020 10 350 0.0 3.2 0.00 0.00 0.00 66 1027.2
20260502023519 10 350 0.0 3.2 0.00 0.00 0.00 66 1027.3
20260502023021 10 0 0.0 0.0 0.00 0.00 0.00 66 1027.2
20260502022519 10 1 0.0 4.8 0.00 0.00 0.00 66 1027.2
20260502022021 10 1 0.0 4.8 0.00 0.00 0.00 66 1027.2
20260502021520 10 0 0.0 0.0 0.00 0.00 0.00 66 1027.2
20260502021021 10 0 0.0 0.0 0.00 0.00 0.00 66 1027.3
20260502020519 10 0 0.0 0.0 0.00 0.00 0.00 67 1027.3
20260502020020 10 0 0.0 0.0 0.00 0.00 0.00 68 1027.6
20260502015519 10 0 0.0 0.0 0.00 0.00 0.00 68 1027.3
20260502015020 10 0 0.0 0.0 0.00 0.00 0.00 69 1027.3
20260502014520 10 0 0.0 0.0 0.00 0.00 0.00 69 1027.3
20260502014021 10 0 0.0 0.0 0.00 0.00 0.00 68 1027.4
20260502013519 10 0 0.0 0.0 0.00 0.00 0.00 68 1027.4
20260502012519 10 0 0.0 0.0 0.00 0.00 0.00 69 1027.4
20260502012020 10 0 0.0 0.0 0.00 0.00 0.00 69 1027.4
20260502011519 10 0 0.0 0.0 0.00 0.00 0.00 68 1027.4
20260502011032 10 72 0.0 4.8 0.00 0.00 0.00 69 1027.6
20260502010519 10 74 0.0 4.8 0.00 0.00 0.00 70 1027.4
20260502010019 10 75 0.0 4.8 0.00 0.00 0.00 70 1027.4
20260502005519 10 68 0.0 3.2 0.00 0.00 0.00 71 1027.4
20260502005020 10 0 0.0 0.0 0.00 0.00 0.00 71 1027.5
20260502003019 10 0 0.0 0.0 0.00 0.00 0.00 73 1027.7
20260502002519 10 0 0.0 0.0 0.00 0.00 0.00 74 1027.7
20260502002019 10 0 0.0 0.0 0.00 0.00 0.00 75 1027.6
20260502001520 10 0 0.0 0.0 0.00 0.00 0.00 75 1027.9
20260502001020 10 0 0.0 0.0 0.00 0.00 0.00 74 1027.8
20260502000019 10 0 0.0 0.0 0.00 0.00 0.00 74 1027.5
20260501235520 10 0 0.0 0.0 0.00 0.00 0.00 73 1027.4
20260501234519 10 0 0.0 0.0 0.00 0.00 0.00 72 1027.8
20260501234019 10 0 0.0 0.0 0.00 0.00 0.00 71 1027.5
20260501233519 10 0 0.0 0.0 0.00 0.00 0.00 70 1027.5
20260501233019 10 0 0.0 0.0 0.00 0.00 0.00 69 1027.5
20260501232519 10 0 0.0 0.0 0.00 0.00 0.00 68 1027.6